Location: Napier
(39.4830°S, 176.9170°E)
Time: 02:29:58
(UTC+12:00)

MOS 1 Rocket - Pass Details

Date: 15 August 2020
Orbit: 614 x 830 km, 97.4° (Epoch: 19 September)

Event Time Altitude Azimuth Distance (km) Brightness Sun altitude
Rises 18:11:51 0° 33° (NNE) 3,091 6.4 -7.8°
Reaches altitude 10° 18:14:16 10° 41° (NE) 2,147 5.5 -8.3°
Maximum altitude 18:18:35 38° 108° (ESE) 1,030 3.7 -9.1°
Drops below altitude 10° 18:22:44 10° 175° (S) 2,069 5.6 -9.9°
Sets 18:25:02 0° 182° (S) 2,965 6.5 -10.3°
